Location: ??????
(36.0418°N, 43.6351°E)
Time: 04:35:30
(UTC+00:00)

Lacrosse 5 - Pass Details

Date: 07 March 2021
Orbit: 718 x 721 km, 57.0° (Epoch: 02 April)

Event Time Altitude Azimuth Distance (km) Brightness Sun altitude
Exits shadow 01:02:53 14° 354° (N) 1,958 4.2 -29.8°
Maximum altitude 01:05:45 21° 34° (NE) 1,587 4.1 -29.3°
Drops below altitude 10° 01:09:33 10° 83° (E) 2,198 5.3 -28.5°
Sets 01:12:28 0° 100° (E) 3,116 6.1 -28.0°
